Location: Peterborough
(44.3091°N, 78.3197°W)
Time: 04:49:06
(UTC-04:00)

Tiros 1 despin weight - Pass Details

Date: 26 March 2023
Orbit: 586 x 632 km, 48.2° (Epoch: 08 June)

Event Time Altitude Azimuth Distance (km) Brightness Sun altitude
Rises 22:06:02 0° 243° (WSW) 2,800 ? -26.5°
Reaches altitude 10° 22:08:18 10° 243° (WSW) 1,904 ? -26.9°
Enters shadow 22:10:30 29° 241° (WSW) 1,077 ? -27.2°
Maximum altitude 22:12:40 83° 156° (SSE) 597 - -27.5°
Drops below altitude 10° 22:17:05 10° 69° (ENE) 1,927 - -28.1°
Sets 22:19:23 0° 68° (ENE) 2,838 - -28.5°
